Regional Weather Roundup
Issued by NWS

Home | Current Version | Previous Version | Text Only | Print | Product List | Glossary On
Versions: 1 2 3 4 5 6 7 8 9 10 11 12 13 14 15 16 17 18 19 20 21 22 23 24 25 26 27 28 29 30 31 32 33 34 35 36 37 38 39 40 41 42 43 44 45 46 47 48 49 50
330
ASUS43 KDMX 251106
RWRIA

WEATHER ROUNDUP FOR IOWA
NATIONAL WEATHER SERVICE DES MOINES IA
600 AM CDT TUE APR 25 2017

NOTE: "FAIR" INDICATES FEW OR NO CLOUDS BELOW 12,000 FEET WITH NO
SIGNIFICANT WEATHER AND/OR OBSTRUCTIONS TO VISIBILITY.

* - THESE STATIONS ARE NOT NWS STATIONS...THUS NOT UNDER NWS
QUALITY CONTROL.  THEY ALSO DO NOT REPORT WEATHER SUCH
AS PRECIPITATION OR FOG.

IAZ001>003-012>014-020>022-031>034-043>046-251200-
   NORTHWEST IOWA

CITY           SKY/WX    TMP DP  RH WIND       PRES   REMARKS
CARROLL *      CLOUDY    48  43  81 NW5       29.51R
CHEROKEE *     CLOUDY    44  42  94 N7        29.52S
DENISON *      CLOUDY    46  43  87 CALM      29.53R
LE MARS *      CLOUDY    43  41  93 N12G18    29.55R
ORANGE CITY *  CLOUDY    43  41  93 N15       29.53F
SHELDON *      CLOUDY    43  41  93 N15       29.52F
SIOUX CITY     CLOUDY    42  38  85 N18       29.52F
SPENCER        CLOUDY    42  40  92 N16       29.52F
STORM LAKE *   CLOUDY    45  43  93 NW9       29.51R
$$

IAZ055>058-069>071-079>083-090>094-251200-
   SOUTHWEST IOWA

CITY           SKY/WX    TMP DP  RH WIND       PRES   REMARKS
ATLANTIC *     CLOUDY    55  45  67 S6        29.51R
AUDUBON *      CLOUDY    48  45  87 CALM      29.52R
CLARINDA *       N/A     57  46  67 S10       29.52F
COUNCIL BLFS * CLOUDY    50  45  81 NW9       29.53R
CRESTON *      MOCLDY    57  43  58 S14       29.54R
HARLAN  *      CLOUDY    50  46  87 NW7       29.56R
LAMONI         PTCLDY    55  39  54 S10       29.54R
RED OAK *      CLOUDY    54  45  71 S3        29.52S
SHENANDOAH *   CLOUDY    55  46  71 CALM      29.50F
$$

IAZ047>049-059>061-072>074-084-251200-
   CENTRAL IOWA

CITY           SKY/WX    TMP DP  RH WIND       PRES   REMARKS
AMES           PTCLDY    51  40  65 SE5       29.52R
ANKENY *       CLOUDY    52  39  62 CALM      29.53S
BOONE *        PTCLDY    50  37  62 SE5       29.50S
CHARITON *     PTCLDY    52  39  62 S9        29.54R
DES MOINES     MOCLDY    57  39  51 SE8       29.52S
GRINNELL*      CLEAR     52  36  54 SE9       29.55F
KNOXVILLE *    PTCLDY    54  36  50 SE8       29.52F
MARSHALLTOWN   CLEAR     53  37  54 SE7       29.52F
NEWTON *       CLEAR     50  37  62 SE8       29.53F
PELLA *        PTCLDY    53  37  54 SE5       29.55S
PERRY *          N/A     52  39  63 SE7       29.50S
$$

IAZ004>006-015-016-023>025-035-036-251200-
   NORTH CENTRAL IOWA

CITY           SKY/WX    TMP DP  RH WIND       PRES   REMARKS
ALGONA *       PTCLDY    52  41  66 CALM      29.50S
CLARION *      CLEAR     48  37  66 SE5       29.51S
ESTHERVILLE    CLOUDY    41  41 100 N18       29.52S
FORT DODGE *   CLEAR     52  36  54 CALM      29.50F
MASON CITY     CLEAR     49  37  63 SE7       29.53S
FOREST CITY *    N/A     46  37  71 SE6       29.51R
WEBSTER CITY * CLEAR     48  37  66 SE8       29.49S
IOWA FALLS *     N/A     51  37  59 SE9       29.53F
$$

IAZ007>011-017>019-026>030-037>042-050>054-066-251200-
   NORTHEAST IOWA

CITY           SKY/WX    TMP DP  RH WIND       PRES   REMARKS
CEDAR RAPIDS   CLEAR     53  38  56 S7        29.57S
CHARLES CITY * PTCLDY    54  34  47 SE9       29.54S
CLINTON *      CLEAR     50  37  61 SE10      29.62F
DECORAH *      CLOUDY    54  36  50 SE8       29.55F
DUBUQUE        CLEAR     52  34  50 S10       29.61S
MONTICELLO *   CLEAR     52  36  54 SE9       29.59S
OELWEIN *      PTCLDY    50  37  62 SE9       29.57S
WATERLOO       PTCLDY    54  36  50 S8        29.54F
$$

IAZ064-065-067-068-078-251200-
   EAST CENTRAL IOWA

CITY           SKY/WX    TMP DP  RH WIND       PRES   REMARKS
DAVENPORT      CLEAR     53  36  52 SE10      29.62S
IOWA CITY      CLOUDY    52  37  56 CALM      29.60S
MT. PLEASANT * MOCLDY    55  39  55 S9        29.60R
MUSCATINE *    CLOUDY    46  37  71 CALM      29.60S
QUAD CITIES    CLEAR     52  36  54 SE6       29.61F
$$

IAZ062-063-075>077-085>089-095>099-251200-
   SOUTHEAST IOWA

CITY           SKY/WX    TMP DP  RH WIND       PRES   REMARKS
BURLINGTON     CLOUDY    56  42  59 S10       29.60F
FAIRFIELD *    MOCLDY    54  37  54 S8        29.58R
FORT MADISON * CLOUDY    57  41  54 S10       29.61R
KEOKUK *       MOCLDY    59  41  51 S10       29.59S
OSKALOOSA *      N/A     51  37  58 SE10      29.55F
CENTERVILLE *    N/A     50  39  66 CALM      29.57S
OTTUMWA        CLOUDY    55  37  50 S12       29.55S
WASHINGTON *   CLOUDY    54  39  58 S8        29.60R
$$

ABBREVIATIONS USED IN REMARKS
   TC - TEMPERATURES IN CELSIUS
  WCI - WIND CHILL INDEX
   HX - HEAT INDEX
  VSB - VISIBILITY
$$





USA.gov is the U.S. government's official web portal to all federal, state and local government web resources and services.